Regional Weather Roundup
Issued by NWS

Home | Current Version | Previous Version | Text Only | Print | Product List | Glossary On
Versions: 1 2 3 4 5 6 7 8 9 10 11 12 13 14 15 16 17 18 19 20 21 22 23 24 25 26 27 28 29 30 31 32 33 34 35 36 37 38 39 40 41 42 43 44 45 46 47 48 49 50
000
ASUS43 KDMX 300007
RWRIA

WEATHER ROUNDUP FOR IOWA
NATIONAL WEATHER SERVICE DES MOINES IA
700 PM CDT TUE JUL 29 2014

NOTE: "FAIR" INDICATES FEW OR NO CLOUDS BELOW 12,000 FEET WITH NO
SIGNIFICANT WEATHER AND/OR OBSTRUCTIONS TO VISIBILITY.

* - THESE STATIONS ARE NOT NWS STATIONS...THUS NOT UNDER NWS
QUALITY CONTROL.  THEY ALSO DO NOT REPORT WEATHER SUCH
AS PRECIPITATION OR FOG.

IAZ001>003-012>014-020>022-031>034-043>046-300100-
   NORTHWEST IOWA

CITY           SKY/WX    TMP DP  RH WIND       PRES   REMARKS
CARROLL *      PTSUNNY   72  57  60 NW6       30.11S
CHEROKEE *     SUNNY     73  54  50 NW7       30.12S
DENISON *      SUNNY     73  55  53 N7        30.11S
LE MARS *      SUNNY     73  54  49 N7        30.13S
ORANGE CITY *  SUNNY     73  54  49 NW3       30.13F
SHELDON *      SUNNY     73  55  53 VRB5      30.12S
SIOUX CITY     SUNNY     77  53  43 N5        30.12F
6HR MIN TEMP:  73; 6HR MAX TEMP:  79;

SPENCER        PTSUNNY   72  56  57 NW8       30.12S
6HR MIN TEMP:  72; 6HR MAX TEMP:  76;

STORM LAKE *   SUNNY     72  55  56 NW7       30.13S
$$

IAZ055>058-069>071-079>083-090>094-300100-
   SOUTHWEST IOWA

CITY           SKY/WX    TMP DP  RH WIND       PRES   REMARKS
ATLANTIC *     SUNNY     73  57  56 N6        30.11F
AUDUBON *      SUNNY     75  57  53 NW3       30.13F
CLARINDA *     SUNNY     75  59  57 N6        30.12F
COUNCIL BLFS * SUNNY     73  57  56 NE6       30.12S
CRESTON *      SUNNY     73  55  53 NW5       30.12S
HARLAN  *      MOSUNNY   72  57  60 NW6       30.16F
LAMONI         MOSUNNY   73  56  54 N3        30.10F
6HR MIN TEMP:  73; 6HR MAX TEMP:  78;

RED OAK *      SUNNY     73  57  56 N8        30.12F
SHENANDOAH *   MOSUNNY   75  57  53 N6        30.12F
$$

IAZ047>049-059>061-072>074-084-300100-
   CENTRAL IOWA

CITY           SKY/WX    TMP DP  RH WIND       PRES   REMARKS
AMES           MOSUNNY   75  56  51 W9        30.09F
6HR MIN TEMP:  73; 6HR MAX TEMP:  79;

ANKENY *       SUNNY     77  55  47 NW9       30.08F
CHARITON *     SUNNY     75  55  50 NW6       30.10S
DES MOINES     MOSUNNY   78  52  40 NW7       30.08F
6HR MIN TEMP:  75; 6HR MAX TEMP:  81;

GRINNELL*      SUNNY     73  57  56 NW5       30.09S
KNOXVILLE *    SUNNY     75  55  50 NW6       30.07F
MARSHALLTOWN   SUNNY     74  58  57 NW8       30.07F
6HR MIN TEMP:  73; 6HR MAX TEMP:  77;

PELLA *        SUNNY     77  58  51 NW6       30.09S
PERRY *          N/A     73  57  56 NW3       30.10S
$$

IAZ004>006-015-016-023>025-035-036-300100-
   NORTH CENTRAL IOWA

CITY           SKY/WX    TMP DP  RH WIND       PRES   REMARKS
ALGONA *       SUNNY     73  55  53 N6        30.10F
CLARION *      MOSUNNY   75  55  50 NW8       30.09F
ESTHERVILLE    SUNNY     73  53  49 NW8       30.10F
6HR MIN TEMP:  71; 6HR MAX TEMP:  75;

FORT DODGE *   SUNNY     73  55  53 N3        30.11S
MASON CITY     SUNNY     74  56  53 NW9       30.09F
6HR MIN TEMP:  73; 6HR MAX TEMP:  78;

FOREST CITY *  SUNNY     72  54  53 E6        30.09S
IOWA FALLS *     N/A     73  55  53 NW8       30.09F
$$

IAZ007>011-017>019-026>030-037>042-050>054-066-300100-
   NORTHEAST IOWA

CITY           SKY/WX    TMP DP  RH WIND       PRES   REMARKS
CEDAR RAPIDS   MOSUNNY   74  58  57 W8        30.05F
6HR MIN TEMP:  74; 6HR MAX TEMP:  78;

CHARLES CITY * MOSUNNY   73  55  53 NW10      30.07F
CLINTON *      SUNNY     75  57  53 W7        30.06S
DECORAH *      MOSUNNY   73  57  56 NW7       30.05R
DUBUQUE        SUNNY     73  59  61 W7        30.05S
6HR MIN TEMP:  72; 6HR MAX TEMP:  77;

MONTICELLO *   SUNNY     75  59  57 W8        30.04S
OELWEIN *      SUNNY     73  57  56 NW9       30.07S
WATERLOO       SUNNY     75  55  49 NW8       30.05F
6HR MIN TEMP:  74; 6HR MAX TEMP:  79;

$$

IAZ064-065-067-068-078-300100-
   EAST CENTRAL IOWA

CITY           SKY/WX    TMP DP  RH WIND       PRES   REMARKS
DAVENPORT      SUNNY     74  58  57 W8        30.05S
6HR MIN TEMP:  74; 6HR MAX TEMP:  78;

IOWA CITY      SUNNY     76  58  53 W12       30.06F
6HR MIN TEMP:  75; 6HR MAX TEMP:  79;

MT. PLEASANT * SUNNY     76  54  45 W7        30.07S
MUSCATINE *    SUNNY     77  57  50 W8        30.05S
QUAD CITIES    SUNNY     77  56  48 W10       30.03F
6HR MIN TEMP:  77; 6HR MAX TEMP:  81;

$$

IAZ062-063-075>077-085>089-095>099-300100-
   SOUTHEAST IOWA

CITY           SKY/WX    TMP DP  RH WIND       PRES   REMARKS
BURLINGTON     SUNNY     75  59  57 NW7       30.06F
6HR MIN TEMP:  74; 6HR MAX TEMP:  78;

FAIRFIELD *    SUNNY     73  57  56 NW7       30.08S
FORT MADISON * SUNNY     75  59  57 W3        30.08S
KEOKUK *       SUNNY     75  59  57 NW5       30.07S
OSKALOOSA *      N/A     74  60  60 NW5       30.08F
CENTERVILLE *  SUNNY     75  55  50 NW5       30.11S
OTTUMWA        SUNNY     75  57  53 NW7       30.08F
6HR MIN TEMP:  72; 6HR MAX TEMP:  78;

WASHINGTON *   SUNNY     75  59  57 W7        30.07S
$$

ABBREVIATIONS USED IN REMARKS
   TC - TEMPERATURES IN CELSIUS
  WCI - WIND CHILL INDEX
   HX - HEAT INDEX
  VSB - VISIBILITY
$$



USA.gov is the U.S. government's official web portal to all federal, state and local government web resources and services.